Location: Pedimozza
(42.0500°N, 9.3500°E)
Time: 10:11:02
(UTC+00:00)

OAO 3 Rocket - Pass Details

Date: 19 August 2019
Orbit: 629 x 683 km, 35.0° (Epoch: 14 September)

Event Time Altitude Azimuth Distance (km) Brightness Sun altitude
Rises 19:45:33 0° 245° (WSW) 2,981 7.0 -15.5°
Reaches altitude 10° 19:48:07 10° 236° (SW) 2,060 6.0 -15.9°
Maximum altitude 19:52:24 33° 173° (S) 1,088 3.9 -16.5°
Enters shadow 19:53:32 29° 145° (SE) 1,178 3.9 -16.7°
